Time,TemperatureF,DewpointF,PressureIn,WindDirection,WindDirectionDegrees,WindSpeedMPH,WindSpeedGustMPH,Humidity,HourlyPrecipIn,Conditions,Clouds,dailyrainin,SoftwareType,DateUTC
2013-02-02 00:00:00,24.8,18.0,29.46,NW,311,2.0,2.0,75,0.00,,,0.00,Wunderground v.1.15,2013-02-02 05:00:00,
2013-02-02 00:04:00,24.8,17.7,29.47,NW,311,2.0,2.0,74,0.00,,,0.00,Wunderground v.1.15,2013-02-02 05:04:00,
2013-02-02 00:14:00,24.8,18.0,29.46,NW,311,1.0,2.0,75,0.00,,,0.00,Wunderground v.1.15,2013-02-02 05:14:00,
2013-02-02 00:24:00,24.7,17.9,29.45,NW,311,1.0,1.0,75,0.00,,,0.00,Wunderground v.1.15,2013-02-02 05:24:00,
2013-02-02 00:30:00,24.6,18.0,29.45,NW,311,1.0,2.0,75,0.00,,,0.00,weatherlink.com 1.10,2013-02-02 05:30:00,
2013-02-02 00:39:00,24.5,18.0,29.44,NW,311,1.0,1.0,76,0.00,,,0.00,Wunderground v.1.15,2013-02-02 05:39:00,
2013-02-02 00:44:00,24.4,17.9,29.44,NW,311,0.0,2.0,76,0.00,,,0.00,Wunderground v.1.15,2013-02-02 05:44:00,
2013-02-02 00:49:00,24.4,17.9,29.44,NW,311,0.0,2.0,76,0.00,,,0.00,Wunderground v.1.15,2013-02-02 05:49:00,
2013-02-02 00:59:00,24.5,17.0,29.45,North,355,0.0,3.0,74,0.00,,,0.00,weatherlink.com 1.10,2013-02-02 05:59:00,
2013-02-02 01:09:00,24.8,16.7,29.43,NE,34,1.0,1.0,71,0.00,,,0.00,Wunderground v.1.15,2013-02-02 06:09:00,
2013-02-02 01:15:00,24.9,16.0,29.43,North,5,1.0,4.0,70,0.00,,,0.00,weatherlink.com 1.10,2013-02-02 06:15:00,
2013-02-02 01:24:00,25.2,16.8,29.43,NNW,345,2.0,2.0,70,0.00,,,0.00,Wunderground v.1.15,2013-02-02 06:24:00,
2013-02-02 01:29:00,25.2,17.1,29.42,NNW,338,2.0,2.0,71,0.00,,,0.00,Wunderground v.1.15,2013-02-02 06:29:00,
2013-02-02 01:39:00,25.2,16.8,29.42,NNW,340,2.0,2.0,70,0.00,,,0.00,Wunderground v.1.15,2013-02-02 06:39:00,
2013-02-02 01:44:00,25.2,17.0,29.43,NNW,340,0.0,3.0,70,0.00,,,0.00,weatherlink.com 1.10,2013-02-02 06:44:00,
2013-02-02 01:54:00,25.5,16.4,29.42,ENE,57,1.0,2.0,68,0.00,,,0.00,Wunderground v.1.15,2013-02-02 06:54:00,
2013-02-02 01:59:00,25.7,16.0,29.41,ENE,57,0.0,2.0,66,0.00,,,0.00,weatherlink.com 1.10,2013-02-02 06:59:00,
2013-02-02 02:09:00,25.7,17.6,29.41,NW,319,1.0,2.0,71,0.00,,,0.00,Wunderground v.1.15,2013-02-02 07:09:00,
2013-02-02 02:14:00,25.5,17.7,29.42,NW,320,2.0,2.0,72,0.00,,,0.00,Wunderground v.1.15,2013-02-02 07:14:00,
2013-02-02 02:24:00,25.4,16.0,29.42,NNW,330,2.0,2.0,67,0.00,,,0.00,Wunderground v.1.15,2013-02-02 07:24:00,
2013-02-02 02:29:00,25.7,17.0,29.42,NNW,330,0.0,2.0,70,0.00,,,0.00,weatherlink.com 1.10,2013-02-02 07:29:00,
2013-02-02 02:35:00,25.7,17.3,29.42,NNW,330,0.0,2.0,70,0.00,,,0.00,Wunderground v.1.15,2013-02-02 07:35:00,
2013-02-02 02:40:00,25.6,17.8,29.42,NNW,330,0.0,2.0,72,0.00,,,0.00,Wunderground v.1.15,2013-02-02 07:40:00,
2013-02-02 02:50:00,25.1,18.0,29.42,NNW,330,1.0,2.0,74,0.00,,,0.00,Wunderground v.1.15,2013-02-02 07:50:00,
2013-02-02 02:59:00,24.6,18.0,29.43,NNW,330,0.0,1.0,75,0.00,,,0.00,weatherlink.com 1.10,2013-02-02 07:59:00,
2013-02-02 03:10:00,24.2,18.0,29.43,North,360,0.0,0.0,77,0.00,,,0.00,Wunderground v.1.15,2013-02-02 08:10:00,
2013-02-02 03:15:00,24.1,18.2,29.43,NNW,330,0.0,0.0,78,0.00,,,0.00,Wunderground v.1.15,2013-02-02 08:15:00,
2013-02-02 03:25:00,23.7,18.1,29.42,NNW,330,0.0,0.0,79,0.00,,,0.00,Wunderground v.1.15,2013-02-02 08:25:00,
2013-02-02 03:30:00,23.6,18.3,29.42,NNW,330,0.0,0.0,80,0.00,,,0.00,Wunderground v.1.15,2013-02-02 08:30:00,
2013-02-02 03:35:00,23.4,17.8,29.42,NNW,330,0.0,0.0,79,0.00,,,0.00,Wunderground v.1.15,2013-02-02 08:35:00,
2013-02-02 03:40:00,23.2,17.7,29.42,NNW,330,0.0,0.0,79,0.00,,,0.00,Wunderground v.1.15,2013-02-02 08:40:00,
2013-02-02 03:46:00,23.1,18.0,29.42,NNW,330,0.0,1.0,80,0.00,,,0.00,weatherlink.com 1.10,2013-02-02 08:46:00,
2013-02-02 03:55:00,22.9,17.9,29.41,NNW,329,0.0,1.0,81,0.00,,,0.00,Wunderground v.1.15,2013-02-02 08:55:00,
2013-02-02 04:00:00,22.8,18.0,29.41,NNW,330,0.0,2.0,82,0.00,,,0.00,weatherlink.com 1.10,2013-02-02 09:00:00,
2013-02-02 04:10:00,22.6,18.2,29.42,NNW,329,0.0,0.0,83,0.00,,,0.00,Wunderground v.1.15,2013-02-02 09:10:00,
2013-02-02 04:15:00,22.5,18.1,29.42,NNW,329,0.0,0.0,83,0.00,,,0.00,Wunderground v.1.15,2013-02-02 09:15:00,
2013-02-02 04:20:00,22.5,18.1,29.41,North,360,0.0,0.0,83,0.00,,,0.00,Wunderground v.1.15,2013-02-02 09:20:00,
2013-02-02 04:30:00,22.4,18.0,29.41,NNW,330,0.0,0.0,83,0.00,,,0.00,Wunderground v.1.15,2013-02-02 09:30:00,
2013-02-02 04:35:00,22.3,17.9,29.41,NNW,330,0.0,1.0,83,0.00,,,0.00,Wunderground v.1.15,2013-02-02 09:35:00,
2013-02-02 04:45:00,22.2,18.1,29.41,NNW,330,0.0,1.0,84,0.00,,,0.00,Wunderground v.1.15,2013-02-02 09:45:00,
2013-02-02 04:54:00,22.0,17.9,29.41,NNW,330,0.0,1.0,84,0.00,,,0.00,Wunderground v.1.15,2013-02-02 09:54:00,
2013-02-02 04:59:00,21.9,18.0,29.41,NNW,330,0.0,1.0,84,0.00,,,0.00,weatherlink.com 1.10,2013-02-02 09:59:00,
2013-02-02 05:05:00,21.8,18.0,29.41,NNW,330,0.0,0.0,85,0.00,,,0.00,Wunderground v.1.15,2013-02-02 10:05:00,
2013-02-02 05:10:00,21.7,17.9,29.41,NNW,330,0.0,0.0,85,0.00,,,0.00,Wunderground v.1.15,2013-02-02 10:10:00,
2013-02-02 05:16:00,21.6,18.0,29.41,NNW,329,0.0,0.0,85,0.00,,,0.00,weatherlink.com 1.10,2013-02-02 10:16:00,
2013-02-02 05:25:00,21.5,18.0,29.41,NNW,330,0.0,0.0,86,0.00,,,0.00,Wunderground v.1.15,2013-02-02 10:25:00,
2013-02-02 05:30:00,21.4,18.0,29.41,NNW,330,0.0,1.0,86,0.00,,,0.00,weatherlink.com 1.10,2013-02-02 10:30:00,
2013-02-02 05:39:00,21.3,17.8,29.41,NNW,330,0.0,1.0,86,0.00,,,0.00,Wunderground v.1.15,2013-02-02 10:39:00,
2013-02-02 05:44:00,21.3,17.8,29.41,NNW,329,0.0,1.0,86,0.00,,,0.00,Wunderground v.1.15,2013-02-02 10:44:00,
2013-02-02 05:49:00,21.3,18.0,29.41,NNW,329,0.0,1.0,87,0.00,,,0.00,Wunderground v.1.15,2013-02-02 10:49:00,
2013-02-02 05:54:00,21.3,18.0,29.41,NNW,329,0.0,1.0,87,0.00,,,0.00,Wunderground v.1.15,2013-02-02 10:54:00,
2013-02-02 05:59:00,21.3,18.0,29.41,NNW,330,0.0,1.0,87,0.00,,,0.00,weatherlink.com 1.10,2013-02-02 10:59:00,
2013-02-02 06:05:00,21.2,17.9,29.41,NNW,330,0.0,0.0,87,0.00,,,0.00,Wunderground v.1.15,2013-02-02 11:05:00,
2013-02-02 06:14:00,21.0,18.0,29.41,NNW,330,0.0,0.0,88,0.00,,,0.00,Wunderground v.1.15,2013-02-02 11:14:00,
2013-02-02 06:19:00,20.9,17.9,29.40,NNW,329,0.0,0.0,88,0.00,,,0.00,Wunderground v.1.15,2013-02-02 11:19:00,
2013-02-02 06:29:00,21.1,18.1,29.40,NNW,330,0.0,0.0,88,0.00,,,0.00,Wunderground v.1.15,2013-02-02 11:29:00,
2013-02-02 06:39:00,21.5,18.5,29.40,NNW,330,0.0,1.0,88,0.00,,,0.00,Wunderground v.1.15,2013-02-02 11:39:00,
2013-02-02 06:45:00,21.6,19.0,29.40,NNW,330,1.0,2.0,88,0.00,,,0.00,weatherlink.com 1.10,2013-02-02 11:45:00,
2013-02-02 06:54:00,21.6,18.6,29.40,NNW,330,1.0,1.0,88,0.00,,,0.00,Wunderground v.1.15,2013-02-02 11:54:00,
2013-02-02 07:00:00,21.6,18.6,29.41,NNW,330,1.0,1.0,88,0.00,,,0.00,Wunderground v.1.15,2013-02-02 12:00:00,
2013-02-02 07:09:00,21.7,18.7,29.40,NNW,330,1.0,1.0,88,0.00,,,0.00,Wunderground v.1.15,2013-02-02 12:09:00,
2013-02-02 07:14:00,21.7,18.7,29.40,NW,325,0.0,1.0,88,0.00,,,0.00,Wunderground v.1.15,2013-02-02 12:14:00,
2013-02-02 07:24:00,22.0,18.7,29.40,WSW,253,1.0,1.0,87,0.00,,,0.00,Wunderground v.1.15,2013-02-02 12:24:00,
2013-02-02 07:34:00,22.3,18.7,29.40,WSW,253,1.0,1.0,86,0.00,,,0.00,Wunderground v.1.15,2013-02-02 12:34:00,
2013-02-02 07:44:00,22.5,18.9,29.39,WSW,252,0.0,1.0,86,0.00,,,0.00,Wunderground v.1.15,2013-02-02 12:44:00,
2013-02-02 07:49:00,22.5,18.9,29.39,WSW,253,0.0,1.0,86,0.00,,,0.00,Wunderground v.1.15,2013-02-02 12:49:00,
2013-02-02 08:00:00,22.6,19.3,29.39,WSW,253,0.0,0.0,87,0.00,,,0.00,Wunderground v.1.15,2013-02-02 13:00:00,
2013-02-02 08:09:00,22.8,19.2,29.39,WSW,253,0.0,1.0,86,0.00,,,0.00,Wunderground v.1.15,2013-02-02 13:09:00,
2013-02-02 08:15:00,23.0,20.0,29.38,WSW,254,0.0,2.0,87,0.00,,,0.00,weatherlink.com 1.10,2013-02-02 13:15:00,
2013-02-02 08:24:00,23.2,19.9,29.39,NW,322,1.0,1.0,87,0.00,,,0.00,Wunderground v.1.15,2013-02-02 13:24:00,
2013-02-02 08:29:00,23.4,19.8,29.39,NW,323,1.0,1.0,86,0.00,,,0.00,Wunderground v.1.15,2013-02-02 13:29:00,
2013-02-02 08:39:00,24.2,20.6,29.39,NW,323,1.0,3.0,86,0.00,,,0.00,Wunderground v.1.15,2013-02-02 13:39:00,
2013-02-02 08:45:00,24.6,21.0,29.39,North,360,1.0,2.0,86,0.00,,,0.00,weatherlink.com 1.10,2013-02-02 13:45:00,
2013-02-02 08:54:00,25.6,19.4,29.39,South,184,2.0,4.0,77,0.00,,,0.00,Wunderground v.1.15,2013-02-02 13:54:00,
2013-02-02 09:00:00,26.2,19.7,29.39,SSW,199,2.0,2.0,76,0.00,,,0.00,Wunderground v.1.15,2013-02-02 14:00:00,
2013-02-02 09:09:00,26.8,19.3,29.41,SSW,194,1.0,1.0,73,0.00,,,0.00,Wunderground v.1.15,2013-02-02 14:09:00,
2013-02-02 09:15:00,27.2,19.0,29.43,North,349,2.0,5.0,72,0.00,,,0.00,weatherlink.com 1.10,2013-02-02 14:15:00,
2013-02-02 09:24:00,28.1,18.9,29.43,NNW,331,3.0,3.0,68,0.00,,,0.00,Wunderground v.1.15,2013-02-02 14:24:00,
2013-02-02 09:29:00,28.4,19.5,29.44,North,5,3.0,3.0,69,0.00,,,0.00,Wunderground v.1.15,2013-02-02 14:29:00,
2013-02-02 09:39:00,28.9,18.6,29.45,North,355,1.0,3.0,65,0.00,,,0.00,Wunderground v.1.15,2013-02-02 14:39:00,
2013-02-02 09:46:00,29.1,19.0,29.45,North,360,0.0,3.0,65,0.00,,,0.00,weatherlink.com 1.10,2013-02-02 14:46:00,
2013-02-02 09:54:00,29.3,19.0,29.42,ESE,117,1.0,3.0,65,0.00,,,0.00,Wunderground v.1.15,2013-02-02 14:54:00,
2013-02-02 10:00:00,29.5,20.2,29.42,NNE,28,1.0,2.0,68,0.00,,,0.00,Wunderground v.1.15,2013-02-02 15:00:00,
2013-02-02 10:09:00,29.7,18.6,29.45,SSW,213,2.0,2.0,63,0.00,,,0.00,Wunderground v.1.15,2013-02-02 15:09:00,
2013-02-02 10:16:00,29.9,19.0,29.46,West,267,3.0,4.0,64,0.00,,,0.00,weatherlink.com 1.10,2013-02-02 15:16:00,
2013-02-02 10:24:00,30.1,19.0,29.46,West,264,2.0,2.0,63,0.00,,,0.00,Wunderground v.1.15,2013-02-02 15:24:00,
2013-02-02 10:31:00,30.1,19.0,29.45,SSW,211,1.0,3.0,63,0.00,,,0.00,weatherlink.com 1.10,2013-02-02 15:31:00,
2013-02-02 10:39:00,30.1,19.4,29.44,SSE,160,1.0,6.0,64,0.00,,,0.00,Wunderground v.1.15,2013-02-02 15:39:00,
2013-02-02 10:44:00,30.2,19.5,29.44,SSE,159,2.0,6.0,64,0.00,,,0.00,Wunderground v.1.15,2013-02-02 15:44:00,
2013-02-02 10:49:00,30.1,19.7,29.44,SSE,159,1.0,6.0,65,0.00,,,0.00,Wunderground v.1.15,2013-02-02 15:49:00,
2013-02-02 10:54:00,30.0,20.4,29.42,SSE,159,1.0,6.0,67,0.00,,,0.00,Wunderground v.1.15,2013-02-02 15:54:00,
2013-02-02 10:59:00,29.9,22.6,29.42,SSW,202,2.0,4.0,74,0.00,,,0.00,Wunderground v.1.15,2013-02-02 15:59:00,
2013-02-02 11:09:00,29.3,22.4,29.41,SSE,166,2.0,3.0,75,0.00,,,0.00,Wunderground v.1.15,2013-02-02 16:09:00,
2013-02-02 11:14:00,29.0,24.2,29.39,SSE,151,4.0,5.0,82,0.00,,,0.00,Wunderground v.1.15,2013-02-02 16:14:00,
2013-02-02 11:25:00,27.9,24.3,29.38,South,169,3.0,4.0,86,0.00,,,0.00,Wunderground v.1.15,2013-02-02 16:25:00,
2013-02-02 11:31:00,28.1,24.0,29.39,South,181,1.0,5.0,85,0.00,,,0.00,weatherlink.com 1.10,2013-02-02 16:31:00,
2013-02-02 11:40:00,28.9,24.7,29.38,SSE,153,3.0,6.0,84,0.00,,,0.00,Wunderground v.1.15,2013-02-02 16:40:00,
2013-02-02 11:46:00,29.4,25.0,29.37,South,180,5.0,7.0,84,0.00,,,0.00,weatherlink.com 1.10,2013-02-02 16:46:00,
2013-02-02 11:55:00,30.2,25.7,29.36,South,174,3.0,4.0,83,0.00,,,0.00,Wunderground v.1.15,2013-02-02 16:55:00,
2013-02-02 12:00:00,30.7,25.9,29.36,South,178,3.0,3.0,82,0.00,,,0.00,Wunderground v.1.15,2013-02-02 17:00:00,
2013-02-02 12:10:00,31.3,26.7,29.35,SE,145,4.0,4.0,83,0.00,,,0.00,Wunderground v.1.15,2013-02-02 17:10:00,
2013-02-02 12:16:00,32.0,28.0,29.35,SSE,163,3.0,8.0,84,0.00,,,0.00,weatherlink.com 1.10,2013-02-02 17:16:00,
2013-02-02 12:25:00,32.2,27.6,29.34,SSE,151,4.0,4.0,83,0.00,,,0.00,Wunderground v.1.15,2013-02-02 17:25:00,
2013-02-02 12:32:00,32.3,28.0,29.34,SSE,167,3.0,6.0,84,0.00,,,0.00,weatherlink.com 1.10,2013-02-02 17:32:00,
2013-02-02 12:40:00,32.1,27.5,29.32,South,188,4.0,8.0,83,0.00,,,0.00,Wunderground v.1.15,2013-02-02 17:40:00,
2013-02-02 12:45:00,32.1,27.8,29.32,South,173,4.0,8.0,84,0.00,,,0.00,Wunderground v.1.15,2013-02-02 17:45:00,
2013-02-02 12:50:00,32.2,27.9,29.32,SW,217,3.0,8.0,84,0.00,,,0.00,Wunderground v.1.15,2013-02-02 17:50:00,
2013-02-02 12:55:00,32.5,27.6,29.31,SSE,165,4.0,8.0,82,0.00,,,0.00,Wunderground v.1.15,2013-02-02 17:55:00,
2013-02-02 13:00:00,32.8,28.2,29.30,SSW,204,4.0,4.0,83,0.00,,,0.00,Wunderground v.1.15,2013-02-02 18:00:00,
2013-02-02 13:10:00,33.0,28.4,29.30,SSE,168,4.0,4.0,83,0.00,,,0.00,Wunderground v.1.15,2013-02-02 18:10:00,
2013-02-02 13:17:00,33.2,29.0,29.29,South,170,2.0,6.0,84,0.00,,,0.00,weatherlink.com 1.10,2013-02-02 18:17:00,
2013-02-02 13:25:00,33.4,28.8,29.29,South,180,3.0,4.0,83,0.00,,,0.00,Wunderground v.1.15,2013-02-02 18:25:00,
2013-02-02 13:32:00,33.5,29.0,29.28,SSE,158,3.0,6.0,82,0.01,,,0.01,weatherlink.com 1.10,2013-02-02 18:32:00,
2013-02-02 13:40:00,33.9,29.3,29.28,SSE,158,3.0,8.0,83,0.00,,,0.01,Wunderground v.1.15,2013-02-02 18:40:00,
2013-02-02 13:47:00,34.2,29.0,29.27,South,170,3.0,6.0,82,0.01,,,0.01,weatherlink.com 1.10,2013-02-02 18:47:00,
2013-02-02 13:55:00,34.0,29.1,29.27,SSE,163,3.0,8.0,82,0.00,,,0.01,Wunderground v.1.15,2013-02-02 18:55:00,
2013-02-02 14:00:00,34.0,29.4,29.26,SSE,164,3.0,3.0,83,0.00,,,0.02,Wunderground v.1.15,2013-02-02 19:00:00,
2013-02-02 14:09:00,34.3,29.4,29.25,SSE,164,3.0,3.0,82,0.00,,,0.02,Wunderground v.1.15,2013-02-02 19:09:00,
2013-02-02 14:16:00,34.6,29.0,29.26,South,174,3.0,5.0,81,0.02,,,0.02,weatherlink.com 1.10,2013-02-02 19:16:00,
2013-02-02 14:25:00,34.7,29.5,29.25,SSE,157,3.0,4.0,81,0.00,,,0.02,Wunderground v.1.15,2013-02-02 19:25:00,
2013-02-02 14:30:00,34.7,28.9,29.25,South,188,4.0,4.0,79,0.00,,,0.02,Wunderground v.1.15,2013-02-02 19:30:00,
2013-02-02 14:39:00,34.4,28.6,29.24,South,182,4.0,8.0,79,0.00,,,0.02,Wunderground v.1.15,2013-02-02 19:39:00,
2013-02-02 14:44:00,33.9,29.0,29.24,South,180,4.0,8.0,82,0.00,,,0.02,Wunderground v.1.15,2013-02-02 19:44:00,
2013-02-02 14:54:00,33.3,29.0,29.24,SSW,200,3.0,8.0,84,0.00,,,0.02,Wunderground v.1.15,2013-02-02 19:54:00,
2013-02-02 15:00:00,33.3,29.3,29.24,South,191,3.0,3.0,85,0.00,,,0.02,Wunderground v.1.15,2013-02-02 20:00:00,
2013-02-02 15:09:00,33.5,29.8,29.24,SSE,167,2.0,2.0,86,0.00,,,0.02,Wunderground v.1.15,2013-02-02 20:09:00,
2013-02-02 15:14:00,34.0,30.3,29.23,South,186,2.0,2.0,86,0.00,,,0.02,Wunderground v.1.15,2013-02-02 20:14:00,
2013-02-02 15:19:00,34.2,30.2,29.23,SSE,157,3.0,3.0,85,0.00,,,0.02,Wunderground v.1.15,2013-02-02 20:19:00,
2013-02-02 15:29:00,34.5,29.9,29.23,SSE,159,3.0,3.0,83,0.00,,,0.02,Wunderground v.1.15,2013-02-02 20:29:00,
2013-02-02 15:39:00,35.0,30.4,29.22,South,187,3.0,3.0,83,0.00,,,0.02,Wunderground v.1.15,2013-02-02 20:39:00,
2013-02-02 15:44:00,35.1,30.5,29.21,South,173,2.0,7.0,83,0.00,,,0.02,Wunderground v.1.15,2013-02-02 20:44:00,
2013-02-02 15:49:00,35.2,30.3,29.21,SSW,213,2.0,7.0,82,0.00,,,0.02,Wunderground v.1.15,2013-02-02 20:49:00,
2013-02-02 15:54:00,35.3,30.4,29.22,SSW,204,3.0,7.0,82,0.00,,,0.02,Wunderground v.1.15,2013-02-02 20:54:00,
2013-02-02 16:00:00,35.5,30.2,29.22,SSW,199,3.0,7.0,81,0.00,,,0.02,Wunderground v.1.15,2013-02-02 21:00:00,
2013-02-02 16:09:00,35.5,30.2,29.22,South,169,4.0,4.0,81,0.00,,,0.02,Wunderground v.1.15,2013-02-02 21:09:00,
2013-02-02 16:14:00,35.6,30.3,29.22,SW,214,4.0,4.0,81,0.00,,,0.02,Wunderground v.1.15,2013-02-02 21:14:00,
2013-02-02 16:24:00,35.7,30.4,29.22,SSW,209,2.0,4.0,81,0.00,,,0.02,Wunderground v.1.15,2013-02-02 21:24:00,
2013-02-02 16:29:00,35.7,30.1,29.22,SSE,165,2.0,2.0,80,0.00,,,0.02,Wunderground v.1.15,2013-02-02 21:29:00,
2013-02-02 16:34:00,35.8,30.5,29.22,SSE,164,2.0,3.0,81,0.00,,,0.02,Wunderground v.1.15,2013-02-02 21:34:00,
2013-02-02 16:44:00,35.8,30.8,29.22,SSW,196,2.0,6.0,82,0.00,,,0.03,Wunderground v.1.15,2013-02-02 21:44:00,
2013-02-02 17:00:00,35.7,31.0,29.21,South,186,3.0,3.0,83,0.00,,,0.03,Wunderground v.1.15,2013-02-02 22:00:00,
2013-02-02 17:09:00,35.5,31.1,29.22,SSE,148,2.0,2.0,84,0.00,,,0.03,Wunderground v.1.15,2013-02-02 22:09:00,
2013-02-02 17:14:00,35.3,31.2,29.21,SSE,157,2.0,2.0,85,0.00,,,0.03,Wunderground v.1.15,2013-02-02 22:14:00,
2013-02-02 17:19:00,35.2,31.1,29.22,South,179,2.0,2.0,85,0.00,,,0.03,Wunderground v.1.15,2013-02-02 22:19:00,
2013-02-02 17:29:00,35.0,31.2,29.21,South,173,1.0,1.0,86,0.00,,,0.03,Wunderground v.1.15,2013-02-02 22:29:00,
2013-02-02 17:39:00,34.9,31.1,29.21,South,190,2.0,7.0,86,0.00,,,0.03,Wunderground v.1.15,2013-02-02 22:39:00,
2013-02-02 17:44:00,34.9,31.1,29.21,South,171,2.0,7.0,86,0.00,,,0.03,Wunderground v.1.15,2013-02-02 22:44:00,
2013-02-02 17:54:00,35.1,31.3,29.20,South,182,3.0,7.0,86,0.00,,,0.03,Wunderground v.1.15,2013-02-02 22:54:00,
2013-02-02 17:59:00,35.1,31.3,29.20,SSE,159,3.0,3.0,86,0.00,,,0.03,Wunderground v.1.15,2013-02-02 22:59:00,
2013-02-02 18:09:00,35.1,31.3,29.20,South,180,3.0,3.0,86,0.00,,,0.03,Wunderground v.1.15,2013-02-02 23:09:00,
2013-02-02 18:19:00,35.0,31.0,29.20,SSW,199,4.0,7.0,86,0.00,,,0.03,weatherlink.com 1.10,2013-02-02 23:19:00,
2013-02-02 18:25:00,35.1,31.6,29.20,South,176,3.0,3.0,87,0.00,,,0.03,Wunderground v.1.15,2013-02-02 23:25:00,
2013-02-02 18:33:00,35.3,32.0,29.21,SSW,201,2.0,5.0,87,0.00,,,0.03,weatherlink.com 1.10,2013-02-02 23:33:00,
2013-02-02 18:40:00,35.5,32.3,29.22,SSW,201,2.0,5.0,88,0.00,,,0.03,Wunderground v.1.15,2013-02-02 23:40:00,
2013-02-02 18:48:00,35.6,32.0,29.21,SE,137,3.0,4.0,88,0.00,,,0.03,weatherlink.com 1.10,2013-02-02 23:48:00,
2013-02-02 18:55:00,35.7,32.5,29.21,SE,136,1.0,5.0,88,0.00,,,0.03,Wunderground v.1.15,2013-02-02 23:55:00,
2013-02-02 19:00:00,35.8,32.9,29.21,SE,137,1.0,1.0,89,0.00,,,0.03,Wunderground v.1.15,2013-02-03 00:00:00,
2013-02-02 19:10:00,35.9,33.0,29.21,SE,137,1.0,2.0,89,0.00,,,0.03,Wunderground v.1.15,2013-02-03 00:10:00,
2013-02-02 19:18:00,36.0,33.0,29.21,SE,137,2.0,3.0,89,0.00,,,0.03,weatherlink.com 1.10,2013-02-03 00:18:00,
2013-02-02 19:25:00,36.1,33.2,29.21,SE,136,1.0,1.0,89,0.00,,,0.03,Wunderground v.1.15,2013-02-03 00:25:00,
2013-02-02 19:30:00,36.1,33.2,29.21,SE,137,1.0,1.0,89,0.00,,,0.03,Wunderground v.1.15,2013-02-03 00:30:00,
2013-02-02 19:35:00,36.2,33.3,29.21,SE,137,1.0,7.0,89,0.00,,,0.03,Wunderground v.1.15,2013-02-03 00:35:00,
2013-02-02 19:40:00,36.2,33.3,29.21,SE,137,1.0,7.0,89,0.00,,,0.03,Wunderground v.1.15,2013-02-03 00:40:00,
2013-02-02 19:48:00,36.2,34.0,29.21,SE,138,0.0,2.0,90,0.00,,,0.03,weatherlink.com 1.10,2013-02-03 00:48:00,
2013-02-02 19:55:00,36.3,33.6,29.21,SE,138,0.0,7.0,90,0.00,,,0.03,Wunderground v.1.15,2013-02-03 00:55:00,
2013-02-02 20:00:00,36.3,33.6,29.21,SE,138,1.0,2.0,90,0.00,,,0.03,Wunderground v.1.15,2013-02-03 01:00:00,
2013-02-02 20:10:00,36.4,33.7,29.22,South,188,2.0,2.0,90,0.00,,,0.03,Wunderground v.1.15,2013-02-03 01:10:00,
2013-02-02 20:15:00,36.4,33.7,29.22,SSW,205,2.0,4.0,90,0.00,,,0.03,Wunderground v.1.15,2013-02-03 01:15:00,
2013-02-02 20:24:00,36.3,33.4,29.22,SSW,195,2.0,2.0,89,0.00,,,0.03,Wunderground v.1.15,2013-02-03 01:24:00,
2013-02-02 20:30:00,36.2,33.3,29.22,SSW,196,1.0,1.0,89,0.00,,,0.03,Wunderground v.1.15,2013-02-03 01:30:00,
2013-02-02 20:40:00,35.8,32.9,29.22,SSW,196,1.0,3.0,89,0.00,,,0.03,Wunderground v.1.15,2013-02-03 01:40:00,
2013-02-02 20:48:00,35.6,33.0,29.22,SSW,196,0.0,2.0,90,0.00,,,0.03,weatherlink.com 1.10,2013-02-03 01:48:00,
2013-02-02 20:55:00,35.4,32.8,29.22,SSW,196,0.0,3.0,90,0.00,,,0.03,Wunderground v.1.15,2013-02-03 01:55:00,
2013-02-02 21:00:00,35.2,32.6,29.22,SSW,211,0.0,1.0,90,0.00,,,0.03,Wunderground v.1.15,2013-02-03 02:00:00,
2013-02-02 21:09:00,34.7,32.1,29.22,SSW,211,1.0,1.0,90,0.00,,,0.03,Wunderground v.1.15,2013-02-03 02:09:00,
2013-02-02 21:19:00,34.2,32.0,29.22,SSW,211,1.0,1.0,90,0.00,,,0.03,weatherlink.com 1.10,2013-02-03 02:19:00,
2013-02-02 21:24:00,33.9,31.6,29.22,SSW,212,0.0,0.0,91,0.00,,,0.03,Wunderground v.1.15,2013-02-03 02:24:00,
2013-02-02 21:29:00,33.5,30.9,29.22,SSW,211,0.0,0.0,90,0.00,,,0.03,Wunderground v.1.15,2013-02-03 02:29:00,
2013-02-02 21:35:00,33.3,31.0,29.22,SSW,212,0.0,4.0,91,0.00,,,0.03,Wunderground v.1.15,2013-02-03 02:35:00,
2013-02-02 21:45:00,32.7,30.4,29.22,SSW,211,0.0,4.0,91,0.00,,,0.03,Wunderground v.1.15,2013-02-03 02:45:00,
2013-02-02 21:54:00,32.3,30.2,29.22,SSW,211,0.0,4.0,92,0.00,,,0.03,Wunderground v.1.15,2013-02-03 02:54:00,
2013-02-02 22:00:00,32.1,30.0,29.23,SSW,211,0.0,0.0,92,0.00,,,0.03,Wunderground v.1.15,2013-02-03 03:00:00,
2013-02-02 22:09:00,31.7,29.6,29.23,SSW,211,0.0,1.0,92,0.00,,,0.03,Wunderground v.1.15,2013-02-03 03:09:00,
2013-02-02 22:18:00,31.5,30.0,29.23,SSW,211,0.0,2.0,93,0.00,,,0.03,weatherlink.com 1.10,2013-02-03 03:18:00,
2013-02-02 22:24:00,31.3,29.5,29.23,SSW,211,0.0,1.0,93,0.00,,,0.03,Wunderground v.1.15,2013-02-03 03:24:00,
2013-02-02 22:29:00,31.2,29.4,29.23,SSW,211,0.0,0.0,93,0.00,,,0.03,Wunderground v.1.15,2013-02-03 03:29:00,
2013-02-02 22:34:00,31.0,29.2,29.23,SSW,211,0.0,1.0,93,0.00,,,0.03,Wunderground v.1.15,2013-02-03 03:34:00,
2013-02-02 22:39:00,30.9,29.1,29.23,SSW,211,0.0,2.0,93,0.00,,,0.03,Wunderground v.1.15,2013-02-03 03:39:00,
2013-02-02 22:54:00,30.8,29.3,29.23,SSW,211,0.0,2.0,94,0.00,,,0.03,Wunderground v.1.15,2013-02-03 03:54:00,
2013-02-02 23:00:00,30.8,29.3,29.23,SSW,211,0.0,0.0,94,0.00,,,0.03,Wunderground v.1.15,2013-02-03 04:00:00,
2013-02-02 23:09:00,30.8,29.3,29.23,SW,214,1.0,1.0,94,0.00,,,0.03,Wunderground v.1.15,2013-02-03 04:09:00,
2013-02-02 23:18:00,30.8,29.0,29.23,SSW,213,0.0,2.0,94,0.00,,,0.03,weatherlink.com 1.10,2013-02-03 04:18:00,
2013-02-02 23:24:00,30.7,29.2,29.22,SW,214,1.0,1.0,94,0.00,,,0.03,Wunderground v.1.15,2013-02-03 04:24:00,
2013-02-02 23:29:00,30.6,29.1,29.23,SW,214,0.0,0.0,94,0.00,,,0.03,Wunderground v.1.15,2013-02-03 04:29:00,
2013-02-02 23:34:00,30.5,29.0,29.23,SW,214,0.0,2.0,94,0.00,,,0.03,Wunderground v.1.15,2013-02-03 04:34:00,
2013-02-02 23:44:00,30.4,28.9,29.23,SW,214,1.0,2.0,94,0.00,,,0.03,Wunderground v.1.15,2013-02-03 04:44:00,
2013-02-02 23:49:00,30.3,28.8,29.23,SW,214,1.0,1.0,94,0.00,,,0.03,Wunderground v.1.15,2013-02-03 04:49:00,
2013-02-02 23:54:00,30.2,28.7,29.23,SW,214,1.0,2.0,94,0.00,,,0.03,Wunderground v.1.15,2013-02-03 04:54:00,